Skip Navigation Links
NOAA logo - Click to go to the NOAA homepage
NOAA's National Weather Service
Alaska Aviation Weather Unit
  NWS logo - Click to go to the NWS homepage
Left Navbar Graphic     10 AKDT = 18 GMT

   
NOAA is celebrating 200 years of science, service, and stewardship. Visit the NOAA 200th celebration Web site to learn more.
USA.gov is the U.S. Government's official Web portal to all Federal, state and local government Web resources and services.
Facebook
NWS on Facebook

Important Change Regarding the AAWU Web Presence

 

Over the last several months, the AAWU has been working to navigate its webpages to a nationally supported server. Security, as well as other needs, have necessitated the change.  We have been given an extension for the site changeover while we diligently work at addressing feedback received. As of July 14, 2017, aawu.arh.noaa.gov will be discontinued. The new AAWU web address is weather.gov/aawu. It is now live and will run in-parallel with the old site until it is discontinued on July 14, 2017. Please continue to send any feedback or questions regarding the new webpages to nws.ar.aawu.webauthors@noaa.gov.  Thank you for your patience during this time of transition.
AAWU Home :: Display TAF Add Bookmark
TAF PADL 261726Z 2618/2718  35010KT P6SM FEW050
     FM262000 35011G18KT P6SM SKC
     FM270400 34007KT P6SM SKC=

3158
FTAK31 PANC 261726
TAFAIL
TAF
METAR PADL 261256Z AUTO 35007KT 10SM CLR 04/03 A2978=

METAR PADL 261356Z AUTO 34006KT 10SM OVC050 04/02 A2977=

METAR PADL 261456Z AUTO 34007KT 10SM BKN055 04/02 A2976=

METAR PADL 261556Z 35010KT 10SM FEW055 05/03 A2975=

METAR PADL 261656Z 35008KT 10SM CLR 06/03 A2976=

METAR PADL 261756Z 35010KT 10SM CLR 06/03 A2975=


NOAA's National Weather Service
Alaska Aviation Weather Unit
6930 Sand Lake Road
Anchorage, AK 99502-1845
Disclaimer
Credits
Glossary
Privacy Policy
About Us
Career Opportunities
Contact AAWU Internet Services Site last modified: April, 17th 2012